TimeIST,TemperatureF,Dew PointF,Humidity,Sea Level PressureIn,VisibilityMPH,Wind Direction,Wind SpeedMPH,Gust SpeedMPH,PrecipitationIn,Events,Conditions,WindDirDegrees,DateUTC
12:00 AM,62.6,57.2,82,30.01,6.2,East,8.1,-,N/A,,Mostly Cloudy,100,2013-07-21 23:00:00
12:30 AM,60.8,57.2,88,30.01,6.2,East,9.2,-,N/A,,Mostly Cloudy,100,2013-07-21 23:30:00
1:00 AM,61,58,88,30.00,25,East,6.7,,,,Mostly Cloudy,100,2013-07-22 00:00:00
1:00 AM,60.8,59.0,94,29.98,6.2,East,6.9,-,N/A,,Mostly Cloudy,100,2013-07-22 00:00:00
1:30 AM,60.8,59.0,94,29.98,6.2,ESE,6.9,-,N/A,,Mostly Cloudy,110,2013-07-22 00:30:00
2:00 AM,60.8,59.0,94,29.98,6.2,East,8.1,-,N/A,,Mostly Cloudy,80,2013-07-22 01:00:00
2:30 AM,60.8,59.0,94,29.98,6.2,East,8.1,-,N/A,,Mostly Cloudy,80,2013-07-22 01:30:00
3:00 AM,60.8,57.2,88,29.95,6.2,East,8.1,-,N/A,,Mostly Cloudy,90,2013-07-22 02:00:00
3:30 AM,60.8,59.0,94,29.95,6.2,ENE,4.6,-,N/A,,Mostly Cloudy,70,2013-07-22 02:30:00
4:00 AM,60.8,59.0,94,29.95,6.2,East,4.6,-,N/A,,Mostly Cloudy,90,2013-07-22 03:00:00
4:30 AM,60.8,59.0,94,29.95,6.2,ENE,5.8,-,N/A,,Mostly Cloudy,70,2013-07-22 03:30:00
5:00 AM,60.8,59.0,94,29.95,6.2,ENE,6.9,-,N/A,,Mostly Cloudy,60,2013-07-22 04:00:00
5:30 AM,60.8,59.0,94,29.92,4.3,East,8.1,-,N/A,,Mostly Cloudy,80,2013-07-22 04:30:00
6:00 AM,60.8,59.0,94,29.92,3.1,East,8.1,-,N/A,,Overcast,90,2013-07-22 05:00:00
6:30 AM,60.8,59.0,94,29.92,1.6,ENE,9.2,-,N/A,,Light Drizzle,70,2013-07-22 05:30:00
7:00 AM,60,60,100,29.93,2,ENE,8.9,,,Rain,Light Drizzle,70,2013-07-22 06:00:00
7:00 AM,60.8,60.8,100,29.92,1.6,ENE,9.2,-,N/A,,Light Drizzle,70,2013-07-22 06:00:00
7:30 AM,60.8,60.8,100,29.92,1.9,NE,6.9,-,N/A,,Light Drizzle,50,2013-07-22 06:30:00
8:00 AM,60.8,60.8,100,29.92,1.2,ENE,8.1,-,N/A,,Light Drizzle,60,2013-07-22 07:00:00
8:30 AM,62.6,62.6,100,29.92,0.7,East,8.1,-,N/A,,Light Drizzle,100,2013-07-22 07:30:00
9:00 AM,62.6,62.6,100,29.92,0.3,East,6.9,-,N/A,Fog,Light Drizzle,100,2013-07-22 08:00:00
9:30 AM,62.6,62.6,100,29.92,0.7,SE,8.1,-,N/A,,Light Drizzle,130,2013-07-22 08:30:00
10:00 AM,62.6,62.6,100,29.92,1.1,SSE,9.2,-,N/A,,Light Drizzle,160,2013-07-22 09:00:00
10:30 AM,62.6,62.6,100,29.92,1.6,SSE,10.4,-,N/A,,Light Drizzle,150,2013-07-22 09:30:00
11:00 AM,62.6,62.6,100,29.95,4.3,SSE,8.1,-,N/A,Rain,Light Rain,160,2013-07-22 10:00:00
11:30 AM,62.6,62.6,100,29.92,6.2,SE,10.4,-,N/A,,Mostly Cloudy,140,2013-07-22 10:30:00
12:00 PM,62.6,62.6,100,29.92,4.3,SSE,10.4,-,N/A,,Light Drizzle,160,2013-07-22 11:00:00
12:30 PM,62.6,62.6,100,29.92,3.7,South,10.4,-,N/A,,Light Drizzle,170,2013-07-22 11:30:00
1:00 PM,63,63,98,29.94,6,South,8.9,,,Rain,Light Drizzle,180,2013-07-22 12:00:00
1:00 PM,62.6,62.6,100,29.92,5.6,South,8.1,-,N/A,,Light Drizzle,180,2013-07-22 12:00:00
1:30 PM,64.4,64.4,100,29.92,4.3,South,9.2,-,N/A,,Mostly Cloudy,180,2013-07-22 12:30:00
2:00 PM,64.4,64.4,100,29.92,6.2,South,9.2,-,N/A,,Mostly Cloudy,170,2013-07-22 13:00:00
2:30 PM,64.4,64.4,100,29.92,6.2,South,8.1,-,N/A,,Mostly Cloudy,180,2013-07-22 13:30:00
3:00 PM,64.4,64.4,100,29.92,6.2,SSW,6.9,-,N/A,,Mostly Cloudy,200,2013-07-22 14:00:00
3:30 PM,64.4,64.4,100,29.92,6.2,South,8.1,-,N/A,,Mostly Cloudy,190,2013-07-22 14:30:00
4:00 PM,66.2,64.4,94,29.92,6.2,South,6.9,-,N/A,,Mostly Cloudy,190,2013-07-22 15:00:00
4:30 PM,66.2,62.6,88,29.92,6.2,South,9.2,-,N/A,,Mostly Cloudy,190,2013-07-22 15:30:00
5:00 PM,66.2,62.6,88,29.92,6.2,South,9.2,-,N/A,,Mostly Cloudy,190,2013-07-22 16:00:00
5:30 PM,66.2,62.6,88,29.92,6.2,South,10.4,-,N/A,,Mostly Cloudy,190,2013-07-22 16:30:00
6:00 PM,66.2,62.6,88,29.92,6.2,SSW,10.4,-,N/A,,Mostly Cloudy,200,2013-07-22 17:00:00
6:30 PM,66.2,62.6,88,29.92,6.2,SSW,10.4,-,N/A,,Mostly Cloudy,200,2013-07-22 17:30:00
7:00 PM,66,62,85,29.91,16,South,8.9,,,,Partly Cloudy,190,2013-07-22 18:00:00
7:00 PM,66.2,62.6,88,29.92,6.2,South,9.2,-,N/A,,Mostly Cloudy,190,2013-07-22 18:00:00
7:30 PM,64.4,60.8,88,29.92,6.2,South,9.2,-,N/A,,Mostly Cloudy,190,2013-07-22 18:30:00
8:00 PM,64.4,60.8,88,29.92,6.2,South,8.1,-,N/A,,Mostly Cloudy,180,2013-07-22 19:00:00
8:30 PM,64.4,60.8,88,29.92,6.2,South,8.1,-,N/A,,Mostly Cloudy,180,2013-07-22 19:30:00
9:00 PM,62.6,60.8,94,29.92,6.2,South,4.6,-,N/A,,Mostly Cloudy,170,2013-07-22 20:00:00
9:30 PM,62.6,60.8,94,29.92,6.2,SE,5.8,-,N/A,,Mostly Cloudy,140,2013-07-22 20:30:00
10:00 PM,62.6,60.8,94,29.92,6.2,SE,5.8,-,N/A,,Mostly Cloudy,140,2013-07-22 21:00:00
10:30 PM,60.8,60.8,100,29.92,6.2,SSE,8.1,-,N/A,,Mostly Cloudy,150,2013-07-22 21:30:00
11:00 PM,60.8,60.8,100,29.89,6.2,SSE,6.9,-,N/A,,Mostly Cloudy,150,2013-07-22 22:00:00
11:30 PM,60.8,60.8,100,29.89,5.0,SSE,6.9,-,N/A,,Mostly Cloudy,150,2013-07-22 22:30:00